Location: Big Prairie
(40.6673°N, 82.0952°W)
Time: 09:50:05
(UTC+00:00)

Meteor 1-26 Rocket - Pass Details

Date: 06 July 2022
Orbit: 810 x 924 km, 81.3° (Epoch: 14 August)

Event Time Altitude Azimuth Distance (km) Brightness Sun altitude
Rises 05:30:46 0° 358° (N) 3,499 8.7 -26.6°
Reaches altitude 10° 05:33:24 10° 7° (N) 2,572 7.7 -26.6°
Maximum altitude 05:38:49 37° 74° (ENE) 1,374 5.4 -26.6°
Enters shadow 05:40:25 32° 107° (ESE) 1,521 5.3 -26.6°
